N737M KVNY-KPSP

Flight info

Callsign N737M
Flight time N/A
Altitude 17000
Route HARYS5 HARYS HITOP V137 PSP
Aircraft B738/M-CDE2E3FGHIJ4J5J7M1M3P2RSWXYZ/B1D1L

Departure

Time 2026-04-20 23:10
Airport Van Nuys Airport (KVNY)

Arrival

Time N/A
Airport Palm Springs International Airport (KPSP)
Time Latitude Longitude Altitude Speed Heading
2026-04-20 22:36 34.21784 -118.49377 810 ft 0 kts 264°
2026-04-20 23:01 34.21784 -118.49359 825 ft 4 kts 307°
2026-04-20 23:01 34.21764 -118.49347 823 ft 4 kts 354°
2026-04-20 23:01 34.21758 -118.49347 810 ft 1 kts 355°
2026-04-20 23:02 34.21752 -118.49345 810 ft 2 kts 22°
2026-04-20 23:02 34.21743 -118.49353 810 ft 2 kts 51°
2026-04-20 23:02 34.21735 -118.49378 810 ft 2 kts 83°
2026-04-20 23:03 34.21735 -118.49391 810 ft 2 kts 91°
2026-04-20 23:03 34.21735 -118.49399 810 ft 0 kts 96°
2026-04-20 23:06 34.21733 -118.49387 810 ft 4 kts 98°
2026-04-20 23:06 34.21726 -118.49332 810 ft 9 kts 99°
2026-04-20 23:06 34.21719 -118.49276 810 ft 9 kts 99°
2026-04-20 23:06 34.21763 -118.49231 810 ft 8 kts 354°
2026-04-20 23:07 34.21801 -118.49235 810 ft 8 kts 355°
2026-04-20 23:07 34.21846 -118.49235 810 ft 4 kts 14°
2026-04-20 23:07 34.21860 -118.49226 810 ft 0 kts 33°
2026-04-20 23:08 34.21872 -118.49214 810 ft 7 kts 52°
2026-04-20 23:08 34.21879 -118.49143 810 ft 8 kts 94°
2026-04-20 23:09 34.21852 -118.49121 810 ft 0 kts 176°
2026-04-20 23:09 34.21815 -118.49118 810 ft 24 kts 176°
2026-04-20 23:10 34.21365 -118.49075 810 ft 104 kts 175°
2026-04-20 23:10 34.20433 -118.48995 844 ft 161 kts 176°
2026-04-20 23:10 34.19698 -118.48952 1325 ft 158 kts 176°
2026-04-20 23:10 34.19148 -118.48903 1877 ft 154 kts 177°
2026-04-20 23:11 34.18112 -118.48579 2636 ft 163 kts 146°
2026-04-20 23:11 34.17312 -118.47463 3031 ft 193 kts 125°
2026-04-20 23:11 34.16610 -118.46077 3817 ft 193 kts 123°
2026-04-20 23:11 34.15917 -118.44666 4490 ft 197 kts 122°
2026-04-20 23:12 34.15301 -118.43176 5189 ft 201 kts 102°
2026-04-20 23:12 34.15493 -118.41494 5937 ft 213 kts 67°
2026-04-20 23:12 34.16476 -118.40130 6718 ft 222 kts 36°
2026-04-20 23:12 34.17947 -118.39541 7432 ft 233 kts
2026-04-20 23:13 34.19533 -118.39989 8215 ft 236 kts 334°
2026-04-20 23:13 34.20990 -118.40937 9020 ft 240 kts 328°
2026-04-20 23:13 34.22442 -118.41971 9905 ft 242 kts 327°
2026-04-20 23:13 34.23896 -118.43001 10738 ft 243 kts 330°
2026-04-20 23:14 34.25528 -118.43611 11523 ft 250 kts 350°
2026-04-20 23:14 34.27253 -118.43956 12356 ft 253 kts 349°
2026-04-20 23:14 34.29009 -118.44330 13204 ft 257 kts 348°
2026-04-20 23:14 34.30783 -118.44550 14025 ft 263 kts
2026-04-20 23:15 34.32494 -118.43779 14791 ft 265 kts 39°
2026-04-20 23:15 34.33638 -118.42073 15578 ft 262 kts 73°
2026-04-20 23:15 34.33944 -118.39950 16366 ft 257 kts 94°
2026-04-20 23:15 34.33915 -118.37725 16825 ft 273 kts 97°
2026-04-20 23:16 34.33815 -118.35357 17016 ft 300 kts 98°
2026-04-20 23:16 34.33687 -118.32689 17019 ft 331 kts 97°
2026-04-20 23:16 34.33554 -118.29768 17025 ft 360 kts 97°
2026-04-20 23:16 34.33427 -118.26667 17006 ft 382 kts 96°
2026-04-20 23:17 34.33304 -118.23415 17000 ft 387 kts 96°
2026-04-20 23:17 34.33191 -118.20172 16979 ft 384 kts 96°
2026-04-20 23:17 34.33082 -118.16945 16968 ft 383 kts 96°
2026-04-20 23:17 34.32972 -118.13729 16961 ft 383 kts 96°
2026-04-20 23:18 34.32861 -118.10508 16971 ft 382 kts 96°
2026-04-20 23:18 34.32749 -118.07284 16970 ft 383 kts 96°
2026-04-20 23:18 34.32637 -118.04101 16963 ft 384 kts 96°
2026-04-20 23:18 34.32522 -118.00875 16961 ft 384 kts 96°
2026-04-20 23:19 34.32406 -117.97640 16972 ft 385 kts 96°
2026-04-20 23:19 34.32288 -117.94387 16973 ft 385 kts 96°
2026-04-20 23:19 34.32169 -117.91146 16969 ft 385 kts 96°
2026-04-20 23:19 34.32052 -117.87948 16977 ft 384 kts 96°
2026-04-20 23:20 34.31932 -117.84719 16967 ft 384 kts 96°
2026-04-20 23:20 34.31811 -117.81480 16974 ft 384 kts 96°
2026-04-20 23:20 34.31690 -117.78240 16975 ft 384 kts 96°
2026-04-20 23:20 34.31568 -117.75001 16968 ft 384 kts 96°
2026-04-20 23:21 34.31447 -117.71807 16975 ft 384 kts 96°
2026-04-20 23:21 34.31323 -117.68583 16973 ft 385 kts 96°
2026-04-20 23:21 34.31198 -117.65338 16984 ft 384 kts 96°
2026-04-20 23:21 34.31069 -117.62084 16944 ft 384 kts 96°
2026-04-20 23:22 34.30947 -117.58903 16977 ft 382 kts 96°
2026-04-20 23:22 34.30821 -117.55676 16956 ft 383 kts 97°
2026-04-20 23:22 34.30695 -117.52470 16957 ft 382 kts 96°
2026-04-20 23:22 34.30568 -117.49254 16947 ft 382 kts 96°
2026-04-20 23:23 34.30440 -117.46045 16948 ft 382 kts 96°
2026-04-20 23:23 34.30311 -117.42829 16944 ft 383 kts 96°
2026-04-20 23:23 34.30180 -117.39612 16946 ft 382 kts 96°
2026-04-20 23:23 34.29982 -117.36451 16951 ft 379 kts 103°
2026-04-20 23:24 34.29354 -117.33361 16967 ft 376 kts 112°
2026-04-20 23:24 34.28293 -117.30473 16958 ft 373 kts 122°
2026-04-20 23:24 34.27015 -117.27777 16968 ft 374 kts 123°
2026-04-20 23:24 34.25709 -117.25053 16960 ft 375 kts 123°
2026-04-20 23:25 34.24404 -117.22309 16970 ft 375 kts 123°
2026-04-20 23:25 34.23112 -117.19558 16971 ft 375 kts 123°
2026-04-20 23:25 34.21825 -117.16807 16964 ft 375 kts 123°
2026-04-20 23:25 34.20546 -117.14068 16957 ft 370 kts 123°
2026-04-20 23:26 34.19311 -117.11423 16957 ft 361 kts 123°
2026-04-20 23:26 34.18077 -117.08785 16967 ft 357 kts 123°
2026-04-20 23:26 34.16854 -117.06177 16962 ft 357 kts 123°
2026-04-20 23:26 34.15636 -117.03581 16783 ft 360 kts 123°
2026-04-20 23:27 34.14404 -117.00955 16414 ft 356 kts 123°
2026-04-20 23:27 34.13189 -116.98367 15990 ft 351 kts 123°
2026-04-20 23:27 34.11993 -116.95816 15497 ft 349 kts 122°
2026-04-20 23:27 34.10802 -116.93274 15050 ft 347 kts 122°
2026-04-20 23:28 34.09753 -116.91040 14605 ft 347 kts 123°
2026-04-20 23:28 34.08553 -116.88486 14151 ft 347 kts 122°
2026-04-20 23:28 34.07373 -116.85978 14008 ft 337 kts 122°
2026-04-20 23:28 34.06240 -116.83560 13966 ft 324 kts 123°
2026-04-20 23:29 34.05148 -116.81236 13936 ft 310 kts 123°
2026-04-20 23:29 34.04103 -116.79021 13918 ft 298 kts 123°
2026-04-20 23:29 34.03096 -116.76894 13921 ft 294 kts 123°
2026-04-20 23:29 34.02047 -116.74682 13929 ft 310 kts 123°
2026-04-20 23:30 34.00970 -116.72409 13922 ft 312 kts 122°
2026-04-20 23:30 33.99909 -116.70164 13914 ft 311 kts 123°
2026-04-20 23:30 33.98825 -116.67872 13902 ft 309 kts 123°
2026-04-20 23:30 33.97779 -116.65654 13901 ft 308 kts 123°
2026-04-20 23:31 33.96713 -116.63408 13911 ft 308 kts 123°
2026-04-20 23:31 33.95646 -116.61161 13895 ft 309 kts 122°
2026-04-20 23:31 33.94577 -116.58911 13886 ft 309 kts 123°
2026-04-20 23:31 33.93514 -116.56674 13868 ft 308 kts 123°
2026-04-20 23:32 33.92446 -116.54431 13494 ft 314 kts 123°
2026-04-20 23:32 33.91356 -116.52141 13110 ft 316 kts 123°
2026-04-20 23:32 33.90265 -116.49843 12732 ft 313 kts 123°
2026-04-20 23:32 33.89187 -116.47574 12338 ft 310 kts 122°
2026-04-20 23:33 33.88117 -116.45329 11971 ft 308 kts 122°
2026-04-20 23:33 33.87077 -116.43146 11643 ft 295 kts 122°
2026-04-20 23:33 33.86073 -116.41046 11082 ft 292 kts 123°
2026-04-20 23:33 33.85044 -116.38929 10498 ft 291 kts 123°
2026-04-20 23:34 33.84022 -116.36841 9973 ft 288 kts 123°
2026-04-20 23:34 33.83009 -116.34776 9411 ft 285 kts 123°
2026-04-20 23:34 33.81999 -116.32719 8811 ft 284 kts 123°
2026-04-20 23:34 33.80993 -116.30675 8234 ft 282 kts 123°
2026-04-20 23:35 33.80036 -116.28725 8102 ft 265 kts 123°
2026-04-20 23:35 33.78561 -116.25691 7916 ft 240 kts 123°
2026-04-20 23:36 33.74306 -116.24073 6667 ft 224 kts 215°
2026-04-20 23:36 33.73900 -116.24436 6566 ft 223 kts 218°
2026-04-20 23:36 33.72705 -116.25633 6181 ft 223 kts 220°
2026-04-20 23:37 33.71908 -116.26455 5903 ft 223 kts 220°